www.pogodaiklimat.ru

Погода и климат >> Архив погоды >> Канада >> Medicine Hat Arpt


ПОГОДА в Medicine Hat Arpt

  • Прогноз погоды в Medicine Hat Arpt
  • Монитор погоды в Medicine Hat Arpt
  • Климат города

АРХИВ ПОГОДЫ в Medicine Hat Arpt

Время (UTC), дата Ветер
(напр.,м/с)
 
Видим.   Явления Облачность Т
(С)
Тd
(С)
f
(%)
Тe
(С)
Тes
(С)
Комфортность P
(гПа)
Po
(гПа)
Тmin
(С)
Tmax
(С)
R
(мм)
S
(см)
00 19.03 С 8 н/о н/о -29.2 -32.3 74 -45 -45 опасность
обморожения
1014.0 1003.9 -38.3 -28.6
03 19.03 СЗ 5 н/о н/о -31.9 -35.0 74 -45 -45 опасность
обморожения
1012.1 1002.0
06 19.03 СЗ 2 н/о н/о -34.7 -38.1 71 -42 -42 опасность
обморожения
1012.3 1002.1 -38.3 -28.6 0
09 19.03 СЗ 2 н/о н/о -36.0 -39.5 70 -45 -45 опасность
обморожения
1013.8 1003.7
12 19.03 С 3 н/о н/о -36.6 -40.4 68 -48 -48 опасность
обморожения
1014.9 1004.8 -36.7 -28.6 64
15 19.03 н/о н/о -36.9 -40.7 68 1014.6 1004.4
18 19.03 С 3 н/о н/о -35.0 -38.8 68 -45 -45 опасность
обморожения
1014.7 1004.5 -37.0 -32.2
21 19.03 С 1 н/о н/о -34.5 -38.2 69 -39 -39 опасность
обморожения
1015.6 1005.4
00 20.03 штиль 0 н/о н/о -34.8 -38.5 69 -35 -35 опасность
обморожения
1016.3 1006.1 -37.0 -34.3
03 20.03 Ю 2 н/о н/о -33.8 -37.4 70 -42 -42 опасность
обморожения
1016.9 1006.7
06 20.03 СЗ 1 н/о н/о -34.0 -37.4 71 -35 -35 опасность
обморожения
1017.4 1007.2 -37.0 -31.8
09 20.03 Ю 7 н/о н/о -34.8 -38.5 69 -50 -50 опасность
обморожения
1018.7 1008.5
12 20.03 Ю 8 н/о н/о -34.8 -38.3 70 -51 -51 опасность
обморожения
1019.4 1009.2 -35.5 -31.8 64
15 20.03 Ю 9 н/о н/о -33.5 -37.1 70 -51 -51 опасность
обморожения
1017.2 1007.0
18 20.03 Ю 9 н/о н/о -34.7 -38.2 70 -52 -52 опасность
обморожения
1015.7 1005.5 -35.5 -33.2
21 20.03 Ю 8 н/о н/о -34.4 -37.9 70 -51 -51 опасность
обморожения
1015.3 1005.1
00 21.03 Ю 6 н/о н/о -34.9 -38.5 70 -50 -50 опасность
обморожения
1015.2 1005.0 -35.5 -33.2
03 21.03 Ю 8 н/о н/о -34.3 -37.9 70 -51 -51 опасность
обморожения
1015.1 1004.9
06 21.03 Ю 8 н/о н/о -35.0 -38.6 70 -52 -52 опасность
обморожения
1014.8 1004.6 -35.5 -33.2 12
09 21.03 Ю 7 н/о н/о -34.7 -38.3 70 -51 -51 опасность
обморожения
1014.5 1004.3
12 21.03 Ю 9 н/о н/о -35.0 -38.6 70 -53 -53 опасность
обморожения
1014.1 1003.9 -35.4 -33.2 64
15 21.03 Ю 7 н/о н/о -35.3 -38.9 69 -52 -52 опасность
обморожения
1013.4 1003.2
18 21.03 Ю 8 н/о н/о -34.0 -37.5 70 -51 -51 опасность
обморожения
1012.6 1002.4 -35.6 -33.7
21 21.03 Ю 7 н/о н/о -34.5 -38.1 70 -51 -51 опасность
обморожения
1011.9 1001.7
00 22.03 Ю 7 н/о н/о -35.5 -39.2 69 -52 -52 опасность
обморожения
1011.6 1001.4 -35.9 -33.7
03 22.03 Ю 6 н/о н/о -36.0 -39.7 69 -51 -51 опасность
обморожения
1012.0 1001.8
06 22.03 Ю 3 н/о н/о -34.5 -38.3 68 -44 -44 опасность
обморожения
1014.2 1004.0 -36.4 -33.7 13
09 22.03 Ю 3 н/о н/о -35.4 -39.0 69 -46 -46 опасность
обморожения
1017.1 1006.9
12 22.03 ЮЗ 1 н/о н/о -33.3 -37.0 69 -35 -35 опасность
обморожения
1017.6 1007.4 -36.4 -33.7 63
15 22.03 ЮЗ 1 н/о н/о -33.1 -36.6 71 -35 -35 опасность
обморожения
1017.3 1007.1
18 22.03 ЮЗ 1 н/о н/о -32.8 -36.2 71 -34 -34 опасность
обморожения
1017.6 1007.4 -36.4 -31.7
21 22.03 ЮЗ 2 н/о н/о -33.1 -36.4 72 -40 -40 опасность
обморожения
1015.3 1005.1
00 23.03 ЮЗ 1 н/о н/о -33.5 -36.9 71 -35 -35 опасность
обморожения
1013.8 1003.7 -35.5 -30.7
03 23.03 ЮЗ 1 н/о н/о -35.3 -39.0 69 -37 -37 опасность
обморожения
1014.5 1004.3
06 23.03 С 3 н/о н/о -35.2 -39.0 68 -45 -45 опасность
обморожения
1016.0 1005.8 -36.8 -30.7
09 23.03 С 2 н/о н/о -36.7 -40.5 68 -44 -44 опасность
обморожения
1015.6 1005.4
12 23.03 н/о н/о -37.1 -41.0 67 1015.0 1004.8 -37.4 -30.7 64
15 23.03 С 4 н/о н/о -36.0 -39.8 68 -48 -48 опасность
обморожения
1014.1 1003.9
18 23.03 СЗ 3 н/о н/о -35.2 -38.9 69 -45 -45 опасность
обморожения
1015.9 1005.7 -37.4 -35.0
21 23.03 штиль 0 н/о н/о -31.3 -34.9 70 -31 -31 опасность
обморожения
1017.6 1007.4
00 24.03 С 3 н/о н/о -36.5 -39.9 71 -47 -47 опасность
обморожения
1017.7 1007.4 -37.4 -30.0
03 24.03 Ю 8 н/о н/о -37.6 -41.5 67 -55 -55 опасность
обморожения
1016.5 1006.2
06 24.03 Ю 11 н/о н/о -38.2 -42.3 65 -58 -58 опасность
обморожения
1017.1 1006.8 -38.6 -30.0 6
09 24.03 Ю 11 н/о н/о -37.8 -41.8 66 -58 -58 опасность
обморожения
1016.1 1005.9
12 24.03 Ю 11 н/о н/о -36.2 -40.1 67 -56 -56 опасность
обморожения
1015.6 1005.4 -38.6 -30.0 63
15 24.03 Ю 12 н/о н/о -35.7 -39.5 68 -56 -56 опасность
обморожения
1014.2 1004.0
18 24.03 Ю 11 н/о н/о -35.0 -38.6 70 -54 -54 опасность
обморожения
1012.6 1002.4 -38.6 -34.3
21 24.03 Ю 11 н/о н/о -34.4 -38.0 70 -53 -53 опасность
обморожения
1011.2 1001.0
00 25.03 Ю 9 н/о н/о -33.2 -36.6 71 -50 -50 опасность
обморожения
1010.1 1000.0 -38.6 -32.9
03 25.03 Ю 9 н/о н/о -32.9 -36.3 71 -50 -50 опасность
обморожения
1008.7 998.6
06 25.03 Ю 9 н/о н/о -32.8 -36.2 71 -50 -50 опасность
обморожения
1007.8 997.7 -38.6 -31.6 18
09 25.03 Ю 7 н/о н/о -32.2 -35.6 72 -48 -48 опасность
обморожения
1008.0 997.9
12 25.03 Ю 8 н/о н/о -33.0 -36.4 71 -49 -49 опасность
обморожения
1008.3 998.2 -33.4 -31.6 63
15 25.03 Ю 6 н/о н/о -32.2 -35.5 72 -46 -46 опасность
обморожения
1008.6 998.5
18 25.03 Ю 8 н/о н/о -32.2 -35.4 73 -48 -48 опасность
обморожения
1009.6 999.5 -35.1 -31.8
21 25.03 Ю 9 н/о н/о -32.1 -35.3 73 -49 -49 опасность
обморожения
1010.4 1000.3

 

Местоположение метеостанции Medicine Hat Arpt (Канада): широта 50.02 долгота -110.70 высота над уровнем моря 716 м.

В архиве по умолчанию представлена погода в Medicine Hat Arpt за последнюю неделю. Архивные данные за месяц целиком и за предыдущие месяцы, начиная с января 2011 года, Вы можете получить, выбрав интересующий диапазон дат из раскрывающегося списка и нажав кнопку "Ввод!".

Внимание! Время в таблицах - всемирное. Для получения местного времени необходимо прибавить поправку, которая в Medicine Hat Arpt равна -7 ч.

Смотрите также архив погоды в соседних городах и на ближайших метеорологических станциях:

Погода в Seven Persons Agdm (Канада) (18 км)
Погода в Irvine Agcm (Канада) (32 км)
Погода в Bow Island Agdm (Канада) (46 км)
Погода в Schuler Radar (Канада) (48 км)
Погода в Schuler Agdm (Канада) (59 км)
Погода в Bow Island (Канада) (60 км)
Погода в Grassy Lake (Канада) (73 км)
Погода в Foremost Agdm (Канада) (79 км)
Погода в Etzicom Agcm (Канада) (81 км)
Погода в Atlee (Канада) (89 км)

Пояснения к столбцам:

Ветер - указаны скорость ветра в м/с - средняя за 10 мин, порывы в срок и между сроками (в фигурных скобках) и направление, откуда дует ветер: С - северный, СВ - северо-восточный, В - восточный, ЮВ - юго-восточный, Ю - южный, ЮЗ - юго-западный, З - западный, СЗ - северо-западный.
Видимость - горизонтальная дальность видимости в метрах или километрах. При видимости от 1 до 10 км при отсутствии осадков обычно наблюдается дымка, при ухудшении видимости до 1 км и менее - туман. В сухую погоду видимость может ухудшаться дымом, пылью или мглою.
Явления - указаны атмосферные явления, наблюдавшиеся в срок или в последний час перед сроком; фигурными скобками обозначены явления, наблюдавшиеся между сроками (за 1-3 часа до срока); квадратными скобками обозначены град или гололедные отложения с указанием их диаметра в мм.
Облачность - указаны через наклонную черту общая и нижняя облачность в баллах и высота нижней границы облаков в метрах; квадратными скобками обозначены формы облаков: Ci - перистые, Cs - перисто-слоистые, Cc - перисто-кучевые, Ac - высококучевые, As - высокослоистые, Sc - слоисто-кучевые, Ns - слоисто-дождевые, Cu - кучевые, Cb - кучево-дождевые. Подробнее классификацию облаков см. в Атласе облаков (PDF).
T - Температура воздуха - температура, измеренная на высоте 2 м над землей.
Td - Температура точки росы - температура, при понижении до которой содержащийся в воздухе водяной пар достигнет насыщения.
f - Относительная влажность воздуха - влажноcть воздуха, измеренная на высоте 2 м над землей.
Te - Эффективная температура - температура, которую ощущает одетый по сезону человек в тени. Характеристика душности погоды. При расчете учитывается влияние влажности воздуха и скорости ветра на теплоощущения человека.
Tes - Эффективная температура на солнце - температура, которую ощущает человек, с поправкой на солнечный нагрев. Характеристика знойности погоды. Зависит от высоты солнца над горизонтом, облачности и скорости ветра. Ночью, в пасмурную погоду, а также при ветре 12 м/с и более поправка равна нулю.
P - Атмосферное давление - приведенное к уровню моря атмосферное давление.
Po - Атмосферное давление - измеренное на уровне метеостанции атмосферное давление.
Tmin - Минимальная температура - минимум температуры воздуха на высоте 2 м над землей.
Tmax - Максимальная температура - максимум температуры воздуха на высоте 2 м над землей.
R - Количество осадков - Количество выпавших осадков, мм. При наведении курсора мыши на число - период времени, за который выпало указанное количество осадков.
S - Снежный покров - Высота снежного покрова, см. При наведении курсора мыши на число - состояние снежного покрова и степень покрытия местности в баллах.